Weather History for KMNH - January, 2014

Change the Weather History Date:

Saturday, January 18, 2014

  Actual Average (KAPA) Record (KAPA)
Temperature  
Mean Temperature 34 °F -  
Max Temperature 44 °F 43 °F - (-1)
Min Temperature 23 °F 20 °F - (-1)
Degree Days  
Heating Degree Days 32    
Moisture  
Dew Point 13 °F    
Average Humidity 46    
Maximum Humidity 69    
Minimum Humidity 25    
Precipitation  
Precipitation 0.00 in - - ()
Sea Level Pressure  
Sea Level Pressure 30.17 in    
Wind  
Wind Speed 8 mph (WSW)    
Max Wind Speed 16 mph    
Max Gust Speed 24 mph    
Visibility 10 miles    
Events      
Averages and records for this station are not official NWS values.
T = Trace of Precipitation, MM = Missing Value Source: NWS Daily Summary

Daily Weather History Graph

Daily Weather History Graph

Search for Another Location

Airport or City:

Trip Planner

Search our weather history database for the weather conditions in past years. The results will help you decide how hot, cold, wet, or windy it might be!

Date:

Astronomy

Jan. 18, 2014 Rise Set
Actual Time 7:15 AM MST 5:03 PM MST
Civil Twilight 6:46 AM MST 5:32 PM MST
Nautical Twilight 6:13 AM MST 6:05 PM MST
Astronomical Twilight 5:41 AM MST 6:37 PM MST
Moon 7:46 PM MST (1/18) 8:17 AM MST (1/18)
Length of Visible Light 10h 46m
Length of Day
9h 48m
Waning Gibbous, 94% of the Moon is Illuminated
Jan 18
Waning Gibbous
Jan 23
Last Quarter
Jan 30
New
Feb 6
First Quarter
Feb 14
Full

Hourly Weather History & Observations

Time (MST) Temp. Windchill Dew Point Humidity Pressure Visibility Wind Dir Wind Speed Gust Speed Precip Events Conditions
12:12 AM 26.6 °F 19.1 °F 12.2 °F 55% 30.08 in 10.0 mi West 6.9 mph - N/A   Clear
12:32 AM 24.8 °F 16.9 °F 12.2 °F 59% 30.08 in 10.0 mi West 6.9 mph - N/A   Clear
12:52 AM 26.6 °F 20.0 °F 12.2 °F 55% 30.09 in 10.0 mi West 5.8 mph - N/A   Clear
1:12 AM 24.8 °F 17.9 °F 12.2 °F 59% 30.10 in 10.0 mi West 5.8 mph - N/A   Clear
1:32 AM 24.8 °F 19.1 °F 10.4 °F 54% 30.11 in 10.0 mi West 4.6 mph - N/A   Clear
1:52 AM 24.8 °F 15.3 °F 10.4 °F 54% 30.12 in 10.0 mi WSW 9.2 mph - N/A   Clear
2:12 AM 28.4 °F 21.2 °F 10.4 °F 47% 30.13 in 10.0 mi WSW 6.9 mph - N/A   Clear
2:32 AM 23.0 °F 14.7 °F 10.4 °F 59% 30.13 in 10.0 mi West 6.9 mph - N/A   Clear
2:52 AM 24.8 °F 19.1 °F 10.4 °F 54% 30.13 in 10.0 mi West 4.6 mph - N/A   Clear
3:12 AM 24.8 °F 16.9 °F 10.4 °F 54% 30.12 in 10.0 mi WSW 6.9 mph - N/A   Clear
3:32 AM 23.0 °F 13.1 °F 10.4 °F 59% 30.12 in 10.0 mi WSW 9.2 mph - N/A   Clear
3:52 AM 23.0 °F 13.1 °F 10.4 °F 59% 30.11 in 10.0 mi West 9.2 mph - N/A   Clear
4:11 AM 23.0 °F 14.7 °F 10.4 °F 59% 30.11 in 10.0 mi West 6.9 mph - N/A   Clear
4:32 AM 26.6 °F 17.5 °F 10.4 °F 51% 30.10 in 10.0 mi SW 9.2 mph - N/A   Clear
4:52 AM 28.4 °F 19.7 °F 8.6 °F 43% 30.11 in 10.0 mi SW 9.2 mph - N/A   Clear
5:12 AM 26.6 °F 18.2 °F 8.6 °F 47% 30.11 in 10.0 mi SW 8.1 mph - N/A   Clear
5:32 AM 28.4 °F 20.4 °F 8.6 °F 43% 30.12 in 10.0 mi SW 8.1 mph - N/A   Clear
5:52 AM 28.4 °F 20.4 °F 8.6 °F 43% 30.12 in 10.0 mi SW 8.1 mph - N/A   Clear
6:12 AM 26.6 °F 17.5 °F 8.6 °F 47% 30.12 in 10.0 mi SW 9.2 mph - N/A   Clear
6:32 AM 26.6 °F 19.1 °F 8.6 °F 47% 30.13 in 10.0 mi SW 6.9 mph - N/A   Clear
6:51 AM 24.8 °F 17.9 °F 8.6 °F 50% 30.13 in 10.0 mi SW 5.8 mph - N/A   Clear
7:11 AM 26.6 °F 19.1 °F 8.6 °F 47% 30.14 in 10.0 mi West 6.9 mph - N/A   Clear
7:32 AM 24.8 °F 16.1 °F 10.4 °F 54% 30.15 in 10.0 mi WSW 8.1 mph - N/A   Clear
7:51 AM 30.2 °F 22.6 °F 8.6 °F 40% 30.15 in 10.0 mi WSW 8.1 mph - N/A   Clear
8:12 AM 30.2 °F 21.9 °F 10.4 °F 44% 30.16 in 10.0 mi WSW 9.2 mph - N/A   Clear
8:32 AM 32.0 °F 24.8 °F 14.0 °F 48% 30.17 in 10.0 mi West 8.1 mph - N/A   Clear
8:52 AM 33.8 °F 27.0 °F 12.2 °F 41% 30.18 in 10.0 mi West 8.1 mph - N/A   Clear
9:12 AM 35.6 °F 30.7 °F 14.0 °F 41% 30.18 in 10.0 mi West 5.8 mph - N/A   Clear
9:31 AM 37.4 °F 32.1 °F 14.0 °F 38% 30.18 in 10.0 mi West 6.9 mph - N/A   Clear
9:52 AM 41.0 °F 35.2 °F 14.0 °F 33% 30.19 in 10.0 mi West 9.2 mph - N/A   Clear
10:12 AM 41.0 °F 34.7 °F 12.2 °F 31% 30.21 in 10.0 mi WNW 10.4 mph - N/A   Clear
10:31 AM 42.8 °F 36.2 °F 12.2 °F 29% 30.21 in 10.0 mi NW 12.7 mph - N/A   Clear
10:52 AM 42.8 °F 37.5 °F 12.2 °F 29% 30.21 in 10.0 mi WNW 9.2 mph - N/A   Clear
11:12 AM 42.8 °F 38.0 °F 12.2 °F 29% 30.20 in 10.0 mi WNW 8.1 mph - N/A   Clear
11:32 AM 44.6 °F 40.2 °F 10.4 °F 25% 30.20 in 10.0 mi NW 8.1 mph - N/A   Clear
11:52 AM 44.6 °F 39.2 °F 10.4 °F 25% 30.19 in 10.0 mi NNW 10.4 mph - N/A   Clear
12:12 PM 44.6 °F 39.2 °F 10.4 °F 25% 30.19 in 10.0 mi NNW 10.4 mph - N/A   Clear
12:32 PM 44.6 °F 38.8 °F 12.2 °F 27% 30.18 in 10.0 mi NNW 11.5 mph - N/A   Clear
12:52 PM 44.6 °F 37.8 °F 12.2 °F 27% 30.19 in 10.0 mi NNE 15.0 mph 23.0 mph N/A   Clear
1:11 PM 44.6 °F 39.2 °F 12.2 °F 27% 30.19 in 10.0 mi NNE 10.4 mph 16.1 mph N/A   Clear
1:32 PM 42.8 °F 37.0 °F 17.6 °F 36% 30.19 in 10.0 mi NE 10.4 mph - N/A   Clear
1:51 PM 42.8 °F 38.0 °F 15.8 °F 34% 30.19 in 10.0 mi NE 8.1 mph - N/A   Clear
2:12 PM 42.8 °F 37.5 °F 15.8 °F 34% 30.20 in 10.0 mi ENE 9.2 mph - N/A   Clear
2:32 PM 42.8 °F 37.5 °F 14.0 °F 31% 30.21 in 10.0 mi ENE 9.2 mph - N/A   Clear
2:52 PM 41.0 °F 35.2 °F 14.0 °F 33% 30.21 in 10.0 mi ENE 9.2 mph - N/A   Clear
3:12 PM 41.0 °F 36.4 °F 14.0 °F 33% 30.23 in 10.0 mi ENE 6.9 mph - N/A   Clear
3:32 PM 41.0 °F 38.0 °F 14.0 °F 33% 30.23 in 10.0 mi NE 4.6 mph - N/A   Clear
3:52 PM 41.0 °F 39.0 °F 17.6 °F 39% 30.23 in 10.0 mi East 3.5 mph - N/A   Clear
4:12 PM 41.0 °F - 15.8 °F 36% 30.23 in 10.0 mi Calm Calm - N/A   Clear
4:32 PM 39.2 °F - 14.0 °F 36% 30.23 in 10.0 mi Calm Calm - N/A   Clear
4:52 PM 35.6 °F 31.7 °F 17.6 °F 48% 30.23 in 10.0 mi East 4.6 mph - N/A   Clear
5:12 PM 33.8 °F - 17.6 °F 52% 30.22 in 10.0 mi Calm Calm - N/A   Clear
5:32 PM 32.0 °F 28.7 °F 19.4 °F 60% 30.23 in 10.0 mi South 3.5 mph - N/A   Clear
5:51 PM 30.2 °F 22.6 °F 19.4 °F 64% 30.23 in 10.0 mi South 8.1 mph - N/A   Clear
6:12 PM 30.2 °F 25.4 °F 19.4 °F 64% 30.23 in 10.0 mi South 4.6 mph - N/A   Clear
6:32 PM 30.2 °F 26.7 °F 17.6 °F 60% 30.23 in 10.0 mi South 3.5 mph - N/A   Clear
6:52 PM 28.4 °F 21.2 °F 19.4 °F 69% 30.22 in 10.0 mi South 6.9 mph - N/A   Clear
7:12 PM 28.4 °F 20.4 °F 17.6 °F 64% 30.21 in 10.0 mi South 8.1 mph - N/A   Clear
7:32 PM 28.4 °F 19.7 °F 17.6 °F 64% 30.21 in 10.0 mi South 9.2 mph - N/A   Clear
7:52 PM 28.4 °F 19.7 °F 17.6 °F 64% 30.20 in 10.0 mi SSW 9.2 mph - N/A   Clear
8:12 PM 26.6 °F 17.5 °F 17.6 °F 69% 30.20 in 10.0 mi SSW 9.2 mph - N/A   Clear
8:32 PM 30.2 °F 21.9 °F 17.6 °F 60% 30.18 in 10.0 mi SSW 9.2 mph - N/A   Clear
8:51 PM 32.0 °F 22.1 °F 15.8 °F 51% 30.17 in 10.0 mi SSW 13.8 mph 18.4 mph N/A   Clear
9:12 PM 33.8 °F 23.5 °F 14.0 °F 44% 30.17 in 10.0 mi SSW 16.1 mph 24.2 mph N/A   Clear
9:32 PM 33.8 °F 24.3 °F 14.0 °F 44% 30.17 in 10.0 mi SSW 13.8 mph 21.9 mph N/A   Clear
9:52 PM 33.8 °F 23.9 °F 12.2 °F 41% 30.18 in 10.0 mi SSW 15.0 mph 21.9 mph N/A   Clear
10:11 PM 33.8 °F 24.3 °F 12.2 °F 41% 30.18 in 10.0 mi SSW 13.8 mph - N/A   Clear
10:32 PM 32.0 °F 22.5 °F 12.2 °F 44% 30.17 in 10.0 mi SSW 12.7 mph - N/A   Clear
10:52 PM 32.0 °F 22.5 °F 12.2 °F 44% 30.17 in 10.0 mi SW 12.7 mph 18.4 mph N/A   Clear
11:12 PM 32.0 °F 24.2 °F 12.2 °F 44% 30.16 in 10.0 mi SSW 9.2 mph - N/A   Clear
11:32 PM 30.2 °F 23.4 °F 12.2 °F 47% 30.15 in 10.0 mi SSW 6.9 mph - N/A   Clear
11:52 PM 32.0 °F 21.2 °F 10.4 °F 41% 30.15 in 10.0 mi SW 16.1 mph - N/A   Clear